NO3U Weather Reports


time (UTC)temp
C
wind
direction
speed
KPH
gust
KPH
rain 1hr
cm
rain 24hr
cm
rain mn
cm
humidity
%
barometer
mb
20260510011524 16 341 9.7 20.9 0.00 0.23 0.23 74 1009.6
20260510011020 16 294 3.2 3.2 0.00 0.23 0.23 72 1008.4
20260510010517 16 92 0.0 0.0 0.00 0.23 0.23 71 1007.6
20260510010014 17 79 0.0 1.6 0.00 0.23 0.23 68 1007.5
20260510005509 17 83 1.6 3.2 0.00 0.23 0.23 67 1007.5
20260510005008 17 71 1.6 1.6 0.00 0.23 0.23 64 1007.6
20260510004505 17 66 3.2 3.2 0.00 0.23 0.23 63 1007.6
20260510004003 17 131 1.6 11.3 0.00 0.23 0.23 63 1007.6
20260510003459 17 172 1.6 9.7 0.00 0.23 0.23 63 1007.4
20260510002954 17 53 3.2 4.8 0.00 0.23 0.23 64 1007.4
20260510002450 17 88 1.6 6.4 0.00 0.23 0.23 64 1007.3
20260510001947 17 77 1.6 4.8 0.00 0.23 0.23 64 1007.7
20260510001444 17 74 1.6 4.8 0.00 0.23 0.23 66 1007.3
20260510000942 18 102 0.0 1.6 0.00 0.23 0.23 62 1007.2
20260510000440 18 87 0.0 9.7 0.00 0.23 0.23 61 1007.1
20260509235935 18 96 3.2 3.2 0.00 0.23 0.23 62 1007.2
20260509235431 18 116 3.2 4.8 0.00 0.23 0.23 63 1007.2
20260509234928 18 77 0.0 3.2 0.00 0.23 0.23 65 1007.1
20260509234425 18 67 1.6 6.4 0.00 0.23 0.23 61 1007.0
20260509233923 18 127 9.7 11.3 0.00 0.23 0.23 63 1006.9
20260509233420 18 81 0.0 4.8 0.00 0.23 0.23 64 1006.8
20260509232916 18 111 0.0 3.2 0.00 0.23 0.23 60 1006.7
20260509232414 19 3 3.2 27.4 0.00 0.23 0.23 60 1006.6
20260509231909 19 78 1.6 9.7 0.00 0.23 0.23 59 1006.8
20260509231406 19 109 3.2 9.7 0.00 0.23 0.23 59 1006.6
20260509230904 19 140 11.3 20.9 0.00 0.23 0.23 59 1006.7
20260509230356 20 99 3.2 6.4 0.00 0.23 0.23 57 1006.8
20260509225851 20 78 3.2 4.8 0.00 0.23 0.23 56 1007.0
20260509225348 20 120 1.6 4.8 0.00 0.23 0.23 57 1007.0
20260509224844 20 48 1.6 14.5 0.00 0.23 0.23 57 1006.8
20260509224340 20 101 0.0 6.4 0.00 0.23 0.23 57 1006.7
20260509223837 20 155 3.2 12.9 0.00 0.23 0.23 55 1006.6
20260509223334 20 65 4.8 20.9 0.00 0.23 0.23 56 1006.6
20260509222831 20 90 1.6 6.4 0.00 0.23 0.23 57 1006.4
20260509222326 20 61 1.6 4.8 0.00 0.23 0.23 56 1006.5
20260509221822 20 102 3.2 4.8 0.00 0.23 0.23 56 1006.7
20260509221320 20 59 1.6 3.2 0.00 0.23 0.23 57 1006.7
20260509220819 20 132 8.0 12.9 0.00 0.23 0.23 57 1006.8
20260509220316 20 139 1.6 11.3 0.00 0.23 0.23 59 1006.8
20260509215811 20 12 1.6 9.7 0.00 0.23 0.23 58 1006.8
20260509215308 20 161 4.8 20.9 0.00 0.23 0.23 58 1006.7
20260509214805 20 108 1.6 11.3 0.00 0.23 0.23 58 1006.7
20260509214302 20 105 1.6 3.2 0.00 0.23 0.23 58 1006.7
20260509213759 20 72 1.6 9.7 0.00 0.23 0.23 57 1006.8
20260509213255 20 266 12.9 16.1 0.00 0.23 0.23 55 1006.9
20260509212752 20 109 8.0 14.5 0.00 0.23 0.23 55 1006.8
20260509212250 20 327 4.8 24.1 0.00 0.23 0.23 56 1006.9
20260509211745 20 311 0.0 6.4 0.00 0.23 0.23 56 1006.9
20260509211242 20 126 3.2 22.5 0.00 0.23 0.23 56 1006.9
20260509210738 20 1 3.2 11.3 0.00 0.23 0.23 56 1006.9
20260509210237 20 339 1.6 14.5 0.00 0.23 0.23 56 1007.1
20260509205735 21 113 6.4 11.3 0.00 0.23 0.23 57 1007.2
20260509205236 20 130 3.2 4.8 0.00 0.23 0.23 57 1007.2
20260509204732 20 306 0.0 9.7 0.00 0.23 0.23 56 1007.4
20260509204228 20 104 9.7 11.3 0.00 0.23 0.23 60 1007.5
20260509203724 20 98 6.4 16.1 0.00 0.23 0.23 58 1007.6
20260509203223 19 273 3.2 9.7 0.00 0.23 0.23 59 1007.5
20260509202718 20 116 0.0 4.8 0.00 0.23 0.23 60 1007.5
20260509202214 20 143 1.6 11.3 0.00 0.23 0.23 63 1007.6
20260509201709 19 131 6.4 12.9 0.00 0.23 0.23 62 1007.5
20260509201206 18 351 3.2 11.3 0.00 0.23 0.23 67 1007.8
20260509200702 18 337 3.2 16.1 0.00 0.23 0.23 64 1007.8
20260509200157 18 159 1.6 6.4 0.00 0.23 0.23 64 1008.0
20260509195653 18 58 3.2 6.4 0.00 0.23 0.23 64 1007.9
20260509195149 18 89 3.2 4.8 0.00 0.23 0.23 65 1008.3
20260509194648 18 274 3.2 6.4 0.00 0.23 0.23 65 1008.4
20260509194146 18 268 3.2 11.3 0.00 0.23 0.23 66 1008.6
20260509193641 18 305 0.0 6.4 0.00 0.23 0.23 66 1008.2
20260509193137 18 135 1.6 16.1 0.00 0.23 0.23 65 1008.2
20260509192634 19 125 0.0 3.2 0.00 0.23 0.23 66 1008.3
20260509192130 19 113 3.2 14.5 0.00 0.23 0.23 65 1008.2
20260509191629 18 98 6.4 12.9 0.00 0.23 0.23 67 1008.3
20260509191126 18 169 3.2 12.9 0.00 0.23 0.23 71 1008.6
20260509190623 18 58 3.2 11.3 0.00 0.23 0.23 70 1008.5
20260509190120 18 333 11.3 12.9 0.00 0.23 0.23 70 1008.7
20260509185618 18 170 1.6 22.5 0.00 0.23 0.23 71 1008.6
20260509185113 18 114 1.6 12.9 0.00 0.23 0.23 70 1008.5
20260509184612 18 18 3.2 6.4 0.00 0.23 0.23 71 1008.5
20260509184108 17 234 0.0 20.9 0.00 0.23 0.23 73 1008.6
20260509183603 17 131 1.6 14.5 0.00 0.23 0.23 72 1008.6
20260509183059 17 296 3.2 17.7 0.00 0.23 0.23 73 1008.7
20260509182556 17 316 0.0 6.4 0.00 0.23 0.23 75 1008.8
20260509182053 17 93 3.2 14.5 0.00 0.23 0.23 75 1008.7
20260509181551 18 101 1.6 9.7 0.00 0.23 0.23 74 1008.9
20260509181048 18 154 3.2 4.8 0.00 0.23 0.23 73 1008.9
20260509180544 17 291 3.2 6.4 0.00 0.23 0.23 77 1008.8
20260509180042 16 339 4.8 12.9 0.00 0.23 0.23 78 1008.9
20260509175537 16 132 6.4 11.3 0.00 0.23 0.23 80 1008.8
20260509175034 16 113 1.6 9.7 0.00 0.23 0.23 81 1009.0
20260509174530 16 304 9.7 17.7 0.00 0.23 0.23 79 1008.9
20260509174026 16 359 1.6 4.8 0.00 0.23 0.23 80 1008.8
20260509173520 16 234 9.7 11.3 0.00 0.23 0.23 80 1009.0
20260509173017 16 71 1.6 9.7 0.00 0.23 0.23 83 1008.9
20260509172514 16 318 0.0 4.8 0.00 0.23 0.23 84 1009.0
20260509172009 16 76 0.0 1.6 0.00 0.23 0.23 84 1008.8
20260509171506 15 39 3.2 4.8 0.00 0.23 0.23 85 1009.0
20260509171002 15 56 0.0 1.6 0.00 0.23 0.23 87 1009.1
20260509170458 15 352 0.0 4.8 0.00 0.23 0.23 88 1009.1
20260509165954 15 47 1.6 3.2 0.00 0.23 0.23 88 1009.0
20260509165453 15 32 0.0 1.6 0.00 0.23 0.23 89 1009.0
20260509164949 15 74 0.0 3.2 0.00 0.23 0.23 88 1009.1
20260509164444 15 346 0.0 0.0 0.00 0.23 0.23 89 1009.0
20260509163941 15 112 0.0 4.8 0.00 0.23 0.23 88 1009.1
20260509163438 14 337 0.0 1.6 0.00 0.23 0.23 91 1009.0
20260509162937 14 260 1.6 6.4 0.00 0.23 0.23 89 1009.1
20260509162436 14 88 0.0 3.2 0.00 0.23 0.23 90 1009.2
20260509161932 14 95 6.4 9.7 0.00 0.23 0.23 90 1009.0
20260509161428 14 29 0.0 4.8 0.00 0.23 0.23 92 1009.1
20260509160924 13 308 3.2 6.4 0.00 0.23 0.23 93 1009.1
20260509160420 14 155 0.0 12.9 0.00 0.23 0.23 93 1009.1
20260509155915 13 0 1.6 3.2 0.00 0.23 0.23 95 1009.1
20260509155412 13 58 3.2 4.8 0.00 0.23 0.23 96 1009.1
20260509154908 12 83 3.2 4.8 0.00 0.23 0.23 98 1009.0
20260509154405 12 83 0.0 3.2 0.00 0.23 0.23 98 1008.8
20260509153901 12 335 0.0 1.6 0.00 0.23 0.23 97 1008.9
20260509153359 12 53 0.0 3.2 0.00 0.23 0.23 98 1009.0
20260509152856 12 100 3.2 4.8 0.00 0.23 0.23 97 1009.0
20260509152352 12 223 6.4 6.4 0.00 0.23 0.23 99 1008.9
20260509151849 12 59 1.6 3.2 0.00 0.23 0.23 99 1008.8
20260509151345 12 120 1.6 4.8 0.00 0.23 0.23 99 1009.0
20260509150843 11 64 3.2 4.8 0.00 0.23 0.23 99 1009.1
20260509150341 11 106 0.0 1.6 0.00 0.23 0.23 99 1009.0
20260509145838 11 64 0.0 1.6 0.00 0.23 0.23 99 1009.2
20260509145332 11 76 0.0 1.6 0.00 0.23 0.23 99 1009.1
20260509144830 11 51 1.6 1.6 0.13 0.23 0.23 99 1009.1
20260509144326 11 105 0.0 6.4 0.13 0.23 0.23 99 1008.9
20260509143823 11 71 1.6 1.6 0.00 0.20 0.20 99 1009.1
20260509143321 11 1 0.0 1.6 0.00 0.20 0.20 99 1009.3
20260509142817 11 65 0.0 0.0 0.00 0.20 0.20 99 1009.1
20260509142313 11 74 0.0 3.2 0.18 0.20 0.20 99 1009.2
20260509141809 11 63 0.0 0.0 0.18 0.20 0.20 99 1009.2
20260509141306 11 105 3.2 3.2 0.00 0.18 0.18 99 1009.2
20260509140803 11 84 0.0 0.0 0.00 0.18 0.18 99 1009.1
20260509140300 11 114 1.6 4.8 0.00 0.18 0.18 99 1009.1
20260509135758 11 96 3.2 3.2 0.00 0.18 0.18 99 1009.1
20260509135255 11 102 3.2 6.4 0.00 0.18 0.18 99 1009.2
20260509134752 11 99 3.2 4.8 0.00 0.18 0.18 99 1009.2
20260509134249 11 5 0.0 3.2 0.00 0.18 0.18 99 1009.2
20260509133746 11 49 0.0 3.2 0.00 0.18 0.18 99 1009.4
20260509133243 10 62 0.0 0.0 0.00 0.18 0.18 99 1009.3
20260509132742 11 341 1.6 4.8 0.00 0.18 0.18 99 1009.4
20260509132240 10 94 1.6 3.2 0.13 0.18 0.18 99 1009.4
20260509131736 10 110 0.0 3.2 0.13 0.18 0.18 99 1009.4
20260509131233 10 54 0.0 4.8 0.00 0.15 0.15 99 1009.1
20260509130729 10 83 3.2 6.4 0.00 0.15 0.15 99 1009.3
20260509130225 10 68 1.6 4.8 0.00 0.15 0.15 99 1009.2
20260509125721 10 46 0.0 0.0 0.00 0.15 0.15 99 1009.3
20260509125219 10 76 1.6 1.6 0.00 0.15 0.15 99 1009.3
20260509124715 10 60 0.0 1.6 0.00 0.15 0.15 99 1009.4
20260509124212 10 95 0.0 0.0 0.00 0.15 0.15 99 1009.4
20260509123710 10 4 0.0 0.0 0.18 0.15 0.15 99 1009.2
20260509123207 10 39 0.0 0.0 0.18 0.15 0.15 99 1009.1
20260509122702 10 52 0.0 0.0 0.00 0.13 0.13 99 1009.4
20260509122154 10 32 1.6 1.6 0.00 0.13 0.13 99 1009.5
20260509121650 10 10 0.0 0.0 0.00 0.13 0.13 99 1009.4
20260509121149 10 83 0.0 0.0 0.00 0.13 0.13 99 1009.4
20260509120646 10 72 0.0 4.8 0.00 0.13 0.13 99 1009.3
20260509120144 10 92 0.0 0.0 0.00 0.13 0.13 99 1009.4
20260509115641 10 100 1.6 3.2 0.00 0.13 0.13 99 1009.3
20260509115139 10 96 1.6 3.2 0.00 0.13 0.13 99 1009.3
20260509114636 10 90 0.0 0.0 0.00 0.13 0.13 99 1009.4
20260509114135 10 100 0.0 3.2 0.00 0.13 0.13 99 1009.3
20260509113633 10 81 0.0 0.0 0.00 0.13 0.13 99 1009.3
20260509113125 9 119 0.0 0.0 0.00 0.13 0.13 99 1009.5
20260509112621 9 72 0.0 0.0 0.00 0.13 0.13 99 1009.3
20260509112118 9 95 0.0 0.0 0.00 0.13 0.13 99 1009.5
20260509111615 9 96 0.0 0.0 0.00 0.13 0.13 99 1009.2
20260509111112 9 102 0.0 0.0 0.00 0.13 0.13 99 1009.2
20260509110609 9 347 0.0 0.0 0.00 0.13 0.13 99 1009.3
20260509110106 9 33 0.0 0.0 0.00 0.13 0.13 99 1009.4
20260509105604 9 92 0.0 0.0 0.00 0.13 0.13 99 1009.4
20260509105102 9 97 0.0 0.0 0.00 0.13 0.13 99 1009.4
20260509104558 9 78 0.0 0.0 0.00 0.13 0.13 99 1009.2
20260509104055 9 105 0.0 0.0 0.00 0.13 0.13 99 1009.3
20260509103553 9 50 0.0 0.0 0.00 0.13 0.13 99 1009.4
20260509103051 9 71 0.0 0.0 0.00 0.13 0.13 99 1009.2
20260509102548 9 88 0.0 0.0 0.00 0.13 0.13 99 1009.2
20260509102045 9 94 0.0 0.0 0.00 0.13 0.13 99 1009.4
20260509101541 9 115 1.6 1.6 0.00 0.13 0.13 99 1009.1
20260509101038 9 100 0.0 0.0 0.00 0.13 0.13 99 1009.0
20260509100535 9 97 0.0 0.0 0.00 0.13 0.13 99 1009.1
20260509100033 9 112 0.0 1.6 0.00 0.13 0.13 99 1009.2
20260509095529 9 96 0.0 0.0 0.00 0.13 0.13 99 1009.4
20260509095027 9 103 0.0 0.0 0.00 0.13 0.13 99 1009.3
20260509094523 9 101 0.0 0.0 0.13 0.13 0.13 99 1009.6
20260509094020 9 101 0.0 0.0 0.13 0.13 0.13 99 1009.5
20260509093518 9 101 0.0 0.0 0.00 0.10 0.10 99 1009.7
20260509093016 9 101 0.0 0.0 0.00 0.10 0.10 99 1009.6
20260509092513 8 84 0.0 0.0 0.00 0.10 0.10 99 1009.9
20260509092012 8 86 0.0 0.0 0.00 0.10 0.10 99 1009.8
20260509091508 8 86 0.0 0.0 0.00 0.10 0.10 99 1009.7
20260509091005 8 86 0.0 0.0 0.00 0.10 0.10 99 1009.7
20260509090503 8 118 0.0 0.0 0.00 0.10 0.10 99 1009.7
20260509090000 8 98 0.0 0.0 0.00 0.10 0.10 99 1009.7
20260509085457 8 94 0.0 0.0 0.00 0.10 0.10 99 1009.8
20260509084953 8 94 0.0 0.0 0.00 0.10 0.10 99 1010.0
20260509084450 8 94 0.0 0.0 0.18 0.10 0.10 99 1009.9
20260509083947 8 82 0.0 0.0 0.18 0.10 0.10 99 1010.1
20260509083445 8 82 0.0 0.0 0.00 0.08 0.08 99 1010.2
20260509082941 8 82 0.0 0.0 0.13 0.08 0.08 99 1010.1
20260509082438 8 46 0.0 0.0 0.13 0.08 0.08 99 1010.1
20260509081935 8 20 0.0 0.0 0.00 0.05 0.05 99 1010.3
20260509081433 8 31 0.0 0.0 0.00 0.05 0.05 99 1010.3
20260509080930 8 2 0.0 0.0 0.00 0.05 0.05 99 1010.4
20260509080427 8 48 0.0 0.0 0.00 0.05 0.05 99 1010.2
20260509075926 8 48 0.0 0.0 0.00 0.05 0.05 99 1010.3
20260509075422 8 48 0.0 0.0 0.00 0.05 0.05 99 1010.4
20260509074920 8 49 0.0 0.0 0.00 0.05 0.05 99 1010.3
20260509074418 8 104 0.0 0.0 0.00 0.05 0.05 99 1010.1
20260509073914 8 119 0.0 0.0 0.00 0.05 0.05 99 1010.3
20260509073410 8 104 0.0 0.0 0.00 0.05 0.05 99 1010.1
20260509072907 8 88 0.0 0.0 0.18 0.05 0.05 99 1010.0
20260509072403 8 118 0.0 0.0 0.00 0.03 0.03 99 1010.4
20260509071900 8 124 0.0 0.0 0.00 0.03 0.03 99 1010.3
20260509071357 8 130 0.0 0.0 0.00 0.03 0.03 99 1010.2
20260509070855 8 92 0.0 0.0 0.00 0.03 0.03 99 1010.1
20260509070351 8 92 0.0 0.0 0.00 0.03 0.03 99 1009.9
20260509065847 8 101 0.0 0.0 0.00 0.03 0.03 99 1010.0
20260509065343 8 83 0.0 0.0 0.00 0.03 0.03 99 1010.0
20260509064839 8 81 0.0 0.0 0.00 0.03 0.03 99 1010.1
20260509064337 8 115 0.0 0.0 0.00 0.03 0.03 99 1010.0
20260509063835 8 122 0.0 0.0 0.00 0.03 0.03 99 1010.2
20260509063330 9 126 0.0 0.0 0.00 0.03 0.03 99 1010.2
20260509062828 9 115 0.0 0.0 0.00 0.03 0.03 99 1010.3
20260509062325 9 104 0.0 0.0 0.00 0.03 0.03 99 1010.3
20260509061822 9 110 0.0 0.0 0.00 0.03 0.03 99 1010.4
20260509061320 9 100 0.0 0.0 0.00 0.03 0.03 99 1010.4
20260509060817 9 90 0.0 0.0 0.00 0.03 0.03 99 1010.5
20260509060314 9 136 0.0 0.0 0.00 0.03 0.03 99 1010.6
20260509055809 9 114 0.0 0.0 0.00 0.03 0.03 99 1010.6
20260509055306 9 105 0.0 0.0 0.00 0.03 0.03 99 1010.7
20260509054802 9 106 0.0 0.0 0.00 0.03 0.03 99 1010.7
20260509054258 9 143 0.0 0.0 0.00 0.03 0.03 99 1011.0
20260509053757 9 109 0.0 0.0 0.00 0.03 0.03 99 1011.1
20260509053254 9 104 0.0 0.0 0.00 0.03 0.03 99 1011.1
20260509052752 9 103 0.0 0.0 0.00 0.03 0.03 99 1011.1
20260509052249 9 94 0.0 0.0 0.00 0.03 0.03 99 1011.2
20260509051746 9 101 0.0 0.0 0.00 0.03 0.03 99 1011.0
20260509051245 9 120 0.0 0.0 0.00 0.03 0.03 99 1011.2
20260509050741 9 128 0.0 0.0 0.00 0.03 0.03 99 1011.2
20260509050237 9 70 0.0 0.0 0.00 0.03 0.03 99 1011.3
20260509045735 9 139 0.0 1.6 0.00 0.03 0.03 99 1011.3
20260509045231 9 160 0.0 1.6 0.00 0.03 0.03 99 1011.3
20260509044729 9 180 0.0 0.0 0.00 0.03 0.03 99 1011.4
20260509044226 9 127 0.0 0.0 0.00 0.03 0.03 99 1011.4
20260509043716 9 105 0.0 0.0 0.00 0.03 0.03 99 1011.4
20260509043212 9 103 0.0 0.0 0.13 0.03 0.03 99 1011.6
20260509042709 9 104 0.0 0.0 0.13 0.03 0.03 99 1011.7
20260509042205 9 97 0.0 0.0 0.00 0.00 0.00 99 1011.7
20260509041702 9 101 0.0 0.0 0.00 0.00 0.00 99 1012.0
20260509041200 9 81 0.0 0.0 0.00 0.00 0.00 99 1011.8
20260509040658 9 80 0.0 0.0 0.00 0.00 0.00 99 1012.0
20260509040154 9 98 0.0 0.0 0.00 0.41 0.41 99 1012.1
20260509035651 9 125 0.0 0.0 0.00 0.41 0.41 99 1012.2
20260509035148 9 81 0.0 0.0 0.00 0.41 0.41 99 1012.2
20260509034646 9 91 0.0 0.0 0.18 0.41 0.41 99 1012.2
20260509034143 9 86 0.0 0.0 0.18 0.41 0.41 99 1012.3
20260509033640 9 110 0.0 0.0 0.00 0.38 0.38 99 1012.4
20260509033136 9 79 0.0 0.0 0.00 0.38 0.38 99 1012.4
20260509032634 9 97 0.0 0.0 0.18 0.38 0.38 99 1012.4
20260509032131 10 89 0.0 0.0 0.18 0.38 0.38 99 1012.5
20260509031628 10 70 0.0 0.0 0.00 0.36 0.36 99 1012.4
20260509031126 10 96 0.0 0.0 0.00 0.36 0.36 99 1012.4
20260509030624 10 104 0.0 0.0 0.00 0.36 0.36 99 1012.7
20260509030121 10 93 0.0 0.0 0.00 0.36 0.36 99 1012.8
20260509025616 10 84 0.0 0.0 0.13 0.36 0.36 99 1012.8
20260509025112 10 98 0.0 0.0 0.00 0.33 0.33 99 1012.9
20260509024607 10 60 0.0 0.0 0.00 0.33 0.33 99 1012.8
20260509024103 10 106 0.0 0.0 0.00 0.33 0.33 99 1013.0
20260509023602 10 111 0.0 0.0 0.00 0.33 0.33 99 1013.1
20260509023059 10 98 0.0 0.0 0.18 0.33 0.33 99 1013.3
20260509022555 10 98 0.0 0.0 0.18 0.33 0.33 99 1013.3
20260509022053 10 98 0.0 0.0 0.00 0.30 0.30 99 1013.2
20260509021549 10 50 0.0 0.0 0.13 0.30 0.30 99 1013.4
20260509021046 10 340 0.0 0.0 0.13 0.30 0.30 99 1013.3
20260509020545 10 4 0.0 0.0 0.00 0.28 0.28 99 1013.3
20260509020041 10 349 0.0 0.0 0.18 0.28 0.28 99 1013.1
20260509015540 10 65 0.0 1.6 0.18 0.28 0.28 99 1012.9
20260509015037 10 320 0.0 0.0 0.00 0.25 0.25 99 1013.1
20260509014534 10 220 1.6 1.6 0.13 0.25 0.25 99 1013.0
20260509014030 10 65 0.0 0.0 0.13 0.25 0.25 99 1012.6
20260509013527 10 84 0.0 0.0 0.00 0.23 0.23 99 1012.4
20260509013022 10 74 0.0 0.0 0.00 0.23 0.23 99 1012.4
20260509012519 10 114 0.0 0.0 0.18 0.23 0.23 99 1012.1
20260509012016 10 284 0.0 1.6 0.18 0.23 0.23 99 1012.4